EST,Max TemperatureF,Mean TemperatureF,Min TemperatureF,Max Dew PointF,MeanDew PointF,Min DewpointF,Max Humidity, Mean Humidity, Min Humidity, Max Sea Level PressureIn, Mean Sea Level PressureIn, Min Sea Level PressureIn, Max VisibilityMiles, Mean VisibilityMiles, Min VisibilityMiles, Max Wind SpeedMPH, Mean Wind SpeedMPH, Max Gust SpeedMPH,PrecipitationIn, CloudCover, Events, WindDirDegrees
2013-12-1,46,40,33,32,29,26,89,76,62,30.08,30.03,29.98,10,8,5,10,5,15,0.00,6,,318
2013-12-2,40,35,29,30,25,20,89,69,48,29.99,29.94,29.89,10,9,5,10,5,14,0.00,5,,67
2013-12-3,39,35,30,36,31,21,92,78,63,29.90,29.85,29.79,10,6,2,15,9,19,0.04,8,Rain-Snow,121
2013-12-4,59,49,38,54,44,36,100,92,83,29.87,29.76,29.60,9,3,0,21,10,30,0.06,8,Fog-Rain,148
2013-12-5,59,44,29,54,35,19,86,73,59,30.16,29.83,29.60,10,9,7,24,13,33,0.00,6,,261
2013-12-6,29,24,18,20,15,9,69,65,60,30.43,30.27,30.13,10,10,10,14,8,19,0.00,7,,317
2013-12-7,26,19,11,14,9,7,84,69,54,30.64,30.55,30.39,10,10,3,15,6,21,T,4,Snow,301
2013-12-8,28,19,10,26,17,6,92,79,65,30.59,30.22,29.96,10,6,1,16,8,21,0.01,6,Snow,102
2013-12-9,28,23,18,25,18,9,92,77,62,30.12,29.99,29.87,10,7,2,25,13,33,T,7,Snow,235
2013-12-10,21,14,7,14,8,-2,80,62,43,30.20,30.08,29.97,10,10,4,26,12,35,T,6,Snow,249
2013-12-11,23,15,7,16,11,3,84,76,67,30.47,30.29,30.18,10,5,0,16,8,23,0.01,7,Fog-Snow,278
2013-12-12,20,11,2,13,3,-6,91,67,42,30.47,30.34,30.19,10,9,1,23,11,29,T,5,Snow,237
2013-12-13,28,23,17,19,15,11,81,75,68,30.25,30.21,30.12,10,10,8,15,6,21,0.00,6,,215
2013-12-14,24,21,18,18,16,14,91,83,74,30.24,30.04,29.82,10,2,0,15,9,20,0.35,8,Fog-Snow,57
2013-12-15,24,19,14,21,14,10,92,83,73,30.06,29.89,29.80,10,4,1,21,10,30,0.01,8,Snow,270
2013-12-16,19,9,-2,11,7,-7,95,79,62,30.19,30.07,29.96,10,5,1,10,4,13,0.07,4,Snow,167
2013-12-17,26,19,12,23,18,10,96,85,74,30.02,29.93,29.85,10,4,0,18,10,25,0.01,7,Fog-Snow,236
2013-12-18,28,26,23,24,19,11,92,73,53,30.14,30.02,29.89,10,7,2,21,11,29,T,5,Snow,230
2013-12-19,41,35,28,34,30,16,89,74,58,29.98,29.92,29.86,10,9,1,15,7,21,0.00,4,,207
2013-12-20,42,38,33,41,35,32,100,96,92,29.86,29.76,29.70,6,2,0,10,5,14,0.29,8,Fog-Rain,71
2013-12-21,34,33,32,34,32,30,100,95,89,29.85,29.78,29.63,7,3,0,15,6,26,0.72,8,Fog-Rain,29
2013-12-22,35,33,31,33,31,29,96,93,89,29.98,29.70,29.54,10,6,2,18,8,25,0.23,8,Rain,297
2013-12-23,31,23,15,28,19,7,92,77,61,30.33,30.20,29.98,10,8,4,18,10,24,T,8,Snow,268
2013-12-24,21,15,8,9,6,3,92,77,62,30.55,30.42,30.28,10,7,2,16,7,20,T,5,Snow,262
2013-12-25,24,17,10,21,16,6,92,80,67,30.49,30.23,30.06,10,6,1,18,10,23,0.01,8,Snow,186
2013-12-26,29,26,23,23,20,15,92,78,63,30.28,30.12,30.01,10,6,1,17,9,26,0.06,8,Snow,242
2013-12-27,39,34,28,29,27,22,85,72,59,30.31,30.22,30.08,10,10,5,18,9,24,T,5,Snow,228
2013-12-28,49,42,34,32,30,27,82,66,50,30.12,30.02,29.90,10,10,10,20,11,30,0.00,0,,230
2013-12-29,41,31,20,32,24,13,96,75,54,30.04,29.83,29.70,10,8,2,17,10,24,T,6,Rain-Snow,295
2013-12-30,20,18,16,11,9,6,74,68,61,30.27,30.17,30.02,10,10,2,15,6,24,T,8,Snow,297
2013-12-31,19,16,13,12,9,6,88,78,67,30.35,30.18,30.03,10,4,0,20,10,26,0.05,8,Fog-Snow,262